Location: Saalfelden+am+Steinernen+Meer
(47.4274°N, 12.8411°E)
Time: 20:10:25
(UTC+01:00)

ISS - Visible Passes

Search period start: 18 November 2017 00:00
Search period end: 28 November 2017 00:00
Orbit: 402 x 407 km, 51.6° (Epoch: 19 November)

Date Brightness Start Highest point End Pass type
(mag) Time Alt. Az. Time Alt. Az. Time Alt. Az.
18 Nov -1.5 05:31:22 13° SSW 05:31:22 13° SSW 05:32:18 10° S visible
26 Nov -1.1 18:24:52 10° S 18:25:03 11° S 18:25:03 11° S visible
27 Nov -0.8 19:07:21 10° SW 19:07:48 13° SW 19:07:48 13° SW visible
